Theta_e
332 330 328 328 327 326 325 326 328 328 329 330 327 325 323 323 322 322 323 325 327 325 325 325 326 325 325 325 324 323 324 331
336 334 330 328 327 328 328 329 330 331 331 330 328 327 325 323 321 321 321 323 324 324 325 324 323 324 326 328 327 327 332 334
342 341 337 334 333 331 332 332 332 332 332 331 330 330 328 326 326 331 322 321 322 323 323 322 322 323 331 333 332 330 335 333
346 345 342 341 341 337 334 334 334 334 334 334 333 337 338 338 335 332 324 322 322 321 321 321 323 329 336 334 336 336 334 334
348 347 345 344 343 342 337 340 338 338 340 340 334 341 340 338 337 333 329 328 326 326 332 335 337 336 337 338 337 336 336 336
347 348 347 346 345 343 342 342 342 341 342 342 340 341 339 339 337 338 338 338 337 337 337 337 338 337 337 337 338 338 337 337
346 346 348 345 346 346 344 343 343 342 343 342 339 340 338 337 339 338 338 337 338 338 337 337 337 338 338 338 339 338 337 337
345 345 348 347 347 345 344 344 342 341 343 341 338 340 340 339 339 339 338 338 338 338 340 338 336 337 335 334 333 333 331 331
345 344 345 346 345 343 342 343 343 340 341 340 338 340 338 337 339 337 338 339 338 338 337 336 334 334 333 330 331 324 323 322
345 345 341 341 342 344 342 342 341 340 341 340 342 340 338 340 339 338 337 337 336 333 327 323 322 322 322 321 320 319 318 319
346 344 343 342 342 343 341 341 340 340 339 341 340 339 341 339 337 336 335 330 325 323 322 322 323 322 321 320 318 316 317 315
347 344 344 343 343 343 342 340 341 343 341 340 340 340 338 335 331 328 323 321 323 324 323 321 320 318 317 313 313 311 310 312
349 346 345 344 344 343 342 344 343 342 340 338 335 333 329 326 323 321 320 323 323 321 318 314 313 312 310 310 308 310 311 308
350 348 347 346 344 343 344 342 340 338 335 332 329 324 321 319 319 320 321 322 319 316 312 310 310 309 309 308 309 308 308 306
349 348 347 345 343 344 343 340 338 335 332 327 322 320 319 318 319 319 316 315 315 312 310 309 309 308 308 308 308 308 308 308
348 348 347 345 343 343 340 337 335 330 326 322 319 318 318 318 317 315 313 311 311 309 309 308 307 308 307 307 307 308 308 308
346 348 346 344 343 340 338 335 331 327 324 320 318 318 317 316 314 313 311 310 310 309 309 308 308 308 308 308 308 307 308 308
347 347 345 343 342 339 336 334 330 325 321 318 318 317 315 314 312 311 310 309 309 308 308 308 308 307 308 309 308 308 308 308
349 347 345 345 342 338 334 333 328 323 319 319 318 316 314 312 311 311 310 310 309 309 308 308 307 307 307 307 308 308 307 307
347 346 345 344 343 337 335 333 325 321 318 319 318 315 313 311 310 310 309 308 307 307 307 307 307 307 307 307 307 306 307 307
Wind_Speed
28 25 22 21 19 19 17 16 15 14 13 11 10 10 9 8 8 7 7 6 5 4 3 3 4 4 4 6 7 7 8 5
26 25 25 22 20 19 17 16 14 13 12 11 10 9 8 7 7 7 6 6 5 5 4 4 4 4 4 5 7 8 4 6
24 23 22 22 20 19 18 16 15 14 12 11 10 9 8 9 7 8 5 7 7 6 6 6 6 7 6 4 7 5 9 7
26 24 24 21 18 19 19 18 18 16 14 13 12 12 9 12 10 8 7 7 8 7 6 6 8 9 10 7 6 8 8 10
27 27 26 24 22 23 20 17 17 15 13 14 11 13 11 7 8 11 8 8 10 9 6 4 6 10 5 5 7 11 11 14
25 27 28 27 21 26 22 22 19 19 21 20 12 10 8 12 17 14 7 7 5 15 10 5 5 8 8 11 11 12 12 12
26 25 28 28 21 23 23 23 21 20 17 22 16 10 14 12 7 11 9 7 6 5 5 6 7 7 8 11 11 12 14 14
27 26 26 28 19 22 22 19 22 24 17 20 17 15 12 12 10 7 6 7 4 3 3 6 8 7 10 12 11 10 12 12
26 27 25 27 20 19 22 20 18 14 17 16 16 14 12 12 8 7 4 3 4 1 3 4 6 9 10 10 11 11 13 15
28 25 27 27 26 22 24 18 19 19 17 17 16 14 10 10 8 7 6 5 3 1 2 5 8 9 11 11 13 15 16 16
34 28 28 28 26 22 21 22 20 21 18 16 14 12 12 10 9 8 7 5 3 1 3 7 7 10 11 13 15 16 15 17
39 34 29 28 25 24 22 23 20 17 15 15 15 14 12 11 12 9 7 4 4 3 4 5 7 9 8 14 15 17 16 16
38 36 33 31 28 28 25 22 22 18 18 17 17 16 15 13 11 8 5 5 6 5 3 7 6 9 11 13 17 10 8 17
36 35 35 34 28 27 24 23 22 20 18 19 17 17 16 10 12 9 8 7 6 3 3 5 6 10 7 12 3 12 16 27
35 36 35 34 31 27 26 24 22 22 23 21 20 17 15 13 12 11 11 8 9 5 2 5 7 7 7 6 3 2 13 6
31 35 38 36 35 30 30 29 25 23 24 21 20 18 16 16 14 13 10 8 8 5 5 3 6 9 10 9 11 13 2 4
32 33 39 37 40 31 31 27 24 26 25 24 21 19 19 16 14 12 11 9 7 3 1 2 4 7 9 12 13 15 15 9
30 33 33 36 40 35 34 32 28 28 27 28 24 21 19 17 15 13 10 7 5 3 1 2 4 6 8 10 12 13 13 13
31 32 32 33 37 36 37 32 32 32 32 27 26 23 21 19 16 13 9 7 4 2 2 4 5 7 8 11 13 14 16 18
33 33 30 32 35 36 37 33 32 31 30 28 26 24 23 21 15 12 8 5 4 2 2 3 5 6 9 11 12 14 16 15
Wind_Direction
169 170 172 174 176 178 179 175 171 168 167 166 162 163 164 168 173 179 182 189 203 216 234 261 276 291 314 324 324 326 326 348
171 173 175 179 180 182 180 178 175 174 176 174 175 174 174 179 184 189 194 202 213 227 235 251 270 281 306 337 326 316 312 343
170 173 178 180 183 184 181 181 182 184 186 188 190 191 187 181 188 209 218 219 221 233 250 267 278 267 260 303 335 328 329 315
173 176 176 179 176 187 184 188 190 191 196 199 202 195 223 204 202 211 235 230 233 238 256 278 276 282 276 270 322 325 305 299
177 179 180 180 184 190 187 191 193 195 201 207 216 220 191 177 223 224 224 223 231 221 233 281 319 301 208 316 298 292 303 310
179 180 181 183 192 185 183 188 195 198 208 211 210 198 207 227 227 219 203 215 249 240 253 270 266 283 291 296 296 302 303 299
184 188 184 187 198 174 179 194 199 200 210 208 209 213 225 228 209 172 188 194 220 213 231 241 267 280 289 292 300 298 300 305
182 190 182 184 186 187 182 192 196 206 211 203 196 220 219 204 209 199 205 210 191 215 280 299 298 290 289 275 282 285 294 293
179 190 193 195 187 189 191 197 192 201 201 213 213 215 221 224 205 215 201 258 256 277 276 261 277 280 284 303 298 322 319 318
176 189 194 194 192 192 192 196 198 198 193 178 190 204 211 189 180 195 199 177 179 186 313 314 328 338 326 327 321 316 314 314
172 183 191 193 193 190 188 197 197 187 192 192 199 191 189 175 166 160 183 164 165 161 28 13 350 333 323 322 320 312 313 316
169 174 186 191 193 188 195 189 187 180 176 174 170 169 165 157 162 177 152 161 115 83 27 356 333 333 332 320 318 304 311 308
165 170 181 185 194 182 181 170 172 164 166 181 168 168 159 162 169 159 136 123 74 64 22 1 340 342 345 333 319 333 3 360
167 171 177 183 183 182 175 166 165 166 174 166 168 164 165 162 149 145 118 142 137 104 62 11 345 14 351 325 337 321 344 343
171 174 178 178 188 174 171 170 168 167 165 168 166 166 156 162 149 156 155 124 144 130 75 35 351 346 3 342 351 349 337 316
179 178 176 179 184 177 175 171 171 170 165 165 164 164 158 151 157 151 149 148 134 108 69 36 353 338 348 348 341 324 310 315
190 185 173 175 179 181 175 173 172 168 166 167 163 161 159 158 154 152 145 141 140 120 37 347 335 338 346 334 324 319 314 320
187 174 172 177 181 179 174 176 173 164 166 157 162 163 161 161 159 155 154 148 141 142 245 311 315 314 306 309 323 323 317 312
171 167 178 181 182 179 177 180 178 171 160 161 163 167 167 163 162 161 159 158 159 203 253 283 299 300 317 319 312 311 316 313
169 177 180 186 183 178 179 182 175 166 162 168 169 169 169 164 161 161 163 164 186 224 251 291 312 324 321 310 312 307 304 315